When you browse on this site, cookies collect data to enhance your experience and personalize the content and advertising you see.
Visit our Privacy Policy to learn more. By continuing to use the site, you agree to this use of cookies and data.
  • In Romania
  • List of Countries
  • For 7 days
  • Water Temperature
  • Weather Map
  • Weather Widgets
  • user-avatar
    Login

    Hourly Weather Chester

    Today, 27 May, Wednesday

    Time Temperature Precipitation Wind Pressure Humidity
    00:00 +10°C° 0 mm 2 mps 776 mmHg 81%
    01:00 +10°C° 0 mm 2 mps 776 mmHg 83%
    02:00 +10°C° 0 mm 1 mps 776 mmHg 85%
    03:00 +10°C° 0 mm 1 mps 776 mmHg 87%
    04:00 +11°C° 0 mm 1 mps 776 mmHg 84%
    05:00 +12°C° 0 mm 1 mps 776 mmHg 81%
    06:00 +13°C° 0 mm 1 mps 776 mmHg 78%
    07:00 +14°C° 0 mm 1 mps 776 mmHg 70%
    08:00 +16°C° 0 mm 1 mps 776 mmHg 62%
    09:00 +18°C° 0 mm 2 mps 776 mmHg 54%
    10:00 +19°C° 0 mm 2 mps 776 mmHg 50%
    11:00 +19°C° 0 mm 2 mps 776 mmHg 46%
    12:00 +20°C° 0 mm 2 mps 776 mmHg 42%
    13:00 +21°C° 0 mm 2 mps 776 mmHg 43%
    14:00 +21°C° 0 mm 2 mps 776 mmHg 44%
    15:00 +21°C° 0 mm 2 mps 776 mmHg 45%
    16:00 +20°C° 0 mm 2 mps 775 mmHg 50%
    17:00 +19°C° 0 mm 3 mps 775 mmHg 55%
    18:00 +18°C° 0 mm 3 mps 775 mmHg 61%
    19:00 +17°C° 0 mm 2 mps 776 mmHg 65%
    20:00 +15°C° 0 mm 2 mps 776 mmHg 70%
    21:00 +13°C° 0 mm 1 mps 777 mmHg 75%
    22:00 +13°C° 0 mm 1 mps 776 mmHg 78%
    23:00 +12°C° 0 mm 2 mps 776 mmHg 81%

    Tomorrow, 28 May, Thursday

    Time Temperature Precipitation Wind Pressure Humidity
    00:00 +12°C° 0 mm 2 mps 776 mmHg 84%
    01:00 +12°C° 0 mm 2 mps 776 mmHg 86%
    02:00 +12°C° 0 mm 2 mps 776 mmHg 89%
    03:00 +10°C° 0 mm 2 mps 775 mmHg 91%
    04:00 +12°C° 0 mm 2 mps 775 mmHg 90%
    05:00 +13°C° 0 mm 2 mps 775 mmHg 89%
    06:00 +13°C° 0 mm 3 mps 775 mmHg 88%
    07:00 +14°C° 0 mm 3 mps 775 mmHg 82%
    08:00 +17°C° 0 mm 3 mps 775 mmHg 76%
    09:00 +19°C° 0 mm 3 mps 775 mmHg 71%
    10:00 +20°C° 0 mm 3 mps 774 mmHg 67%
    11:00 +21°C° 0 mm 3 mps 774 mmHg 64%
    12:00 +22°C° 0 mm 3 mps 774 mmHg 60%
    13:00 +22°C° 0 mm 3 mps 773 mmHg 60%
    14:00 +24°C° 0 mm 3 mps 773 mmHg 59%
    15:00 +24°C° 0 mm 3 mps 772 mmHg 59%
    16:00 +22°C° 0 mm 3 mps 772 mmHg 62%
    17:00 +23°C° 0 mm 2 mps 772 mmHg 64%
    18:00 +23°C° 0 mm 2 mps 772 mmHg 67%
    19:00 +20°C° 0 mm 2 mps 772 mmHg 73%
    20:00 +18°C° 0 mm 2 mps 772 mmHg 80%
    21:00 +16°C° 0 mm 3 mps 772 mmHg 86%
    22:00 +15°C° 0 mm 2 mps 772 mmHg 85%
    23:00 +15°C° 0 mm 2 mps 772 mmHg 84%

    Day after tomorrow, 29 May, Friday

    Time Temperature Precipitation Wind Pressure Humidity
    00:00 +14°C° 0 mm 2 mps 771 mmHg 83%
    01:00 +13°C° 0 mm 2 mps 771 mmHg 83%
    02:00 +13°C° 0 mm 2 mps 771 mmHg 84%
    03:00 +12°C° 0 mm 2 mps 771 mmHg 84%
    04:00 +13°C° 0 mm 2 mps 771 mmHg 78%
    05:00 +13°C° 0 mm 2 mps 771 mmHg 72%
    06:00 +13°C° 0 mm 3 mps 771 mmHg 67%
    07:00 +14°C° 0 mm 3 mps 771 mmHg 61%
    08:00 +17°C° 0 mm 3 mps 771 mmHg 56%
    09:00 +18°C° 0 mm 3 mps 770 mmHg 50%
    10:00 +19°C° 0 mm 4 mps 770 mmHg 51%
    11:00 +20°C° 0 mm 4 mps 770 mmHg 52%
    12:00 +21°C° 0 mm 4 mps 770 mmHg 52%
    13:00 +22°C° 0 mm 4 mps 769 mmHg 53%
    14:00 +22°C° 0 mm 4 mps 769 mmHg 54%
    15:00 +22°C° 0 mm 4 mps 768 mmHg 55%
    16:00 +22°C° 0 mm 4 mps 768 mmHg 58%
    17:00 +21°C° 0 mm 3 mps 768 mmHg 62%
    18:00 +21°C° 0 mm 3 mps 768 mmHg 65%
    19:00 +19°C° 0 mm 3 mps 768 mmHg 72%
    20:00 +17°C° 0 mm 3 mps 768 mmHg 79%
    21:00 +16°C° 0 mm 3 mps 768 mmHg 85%
    22:00 +14°C° 0 mm 3 mps 768 mmHg 87%
    23:00 +13°C° 0 mm 3 mps 768 mmHg 88%

    30 May, Saturday

    Time Temperature Precipitation Wind Pressure Humidity
    00:00 +12°C° 0 mm 3 mps 768 mmHg 90%
    01:00 +13°C° 0 mm 2 mps 768 mmHg 91%
    02:00 +12°C° 0 mm 2 mps 768 mmHg 91%
    03:00 +12°C° 0 mm 2 mps 768 mmHg 92%
    04:00 +12°C° 0 mm 2 mps 768 mmHg 89%
    05:00 +12°C° 0 mm 2 mps 768 mmHg 85%
    06:00 +13°C° 0 mm 2 mps 768 mmHg 82%
    07:00 +14°C° 0 mm 2 mps 768 mmHg 72%
    08:00 +16°C° 0 mm 3 mps 768 mmHg 61%
    09:00 +17°C° 0 mm 3 mps 768 mmHg 51%
    10:00 +18°C° 0 mm 3 mps 768 mmHg 50%
    11:00 +19°C° 0 mm 3 mps 767 mmHg 48%
    12:00 +20°C° 0 mm 3 mps 767 mmHg 46%
    13:00 +21°C° 0 mm 3 mps 767 mmHg 48%
    14:00 +21°C° 0 mm 3 mps 767 mmHg 49%
    15:00 +22°C° 0 mm 3 mps 766 mmHg 50%
    16:00 +21°C° 0 mm 3 mps 766 mmHg 54%
    17:00 +21°C° 0 mm 2 mps 766 mmHg 59%
    18:00 +21°C° 0 mm 2 mps 766 mmHg 63%
    19:00 +19°C° 0 mm 2 mps 766 mmHg 70%
    20:00 +17°C° 0 mm 2 mps 767 mmHg 77%
    21:00 +16°C° 0 mm 3 mps 767 mmHg 84%
    22:00 +14°C° 0 mm 3 mps 767 mmHg 85%
    23:00 +13°C° 0 mm 3 mps 767 mmHg 86%

    31 May, Sunday

    Time Temperature Precipitation Wind Pressure Humidity
    00:00 +13°C° 0 mm 2 mps 767 mmHg 87%
    01:00 +13°C° 0 mm 2 mps 767 mmHg 87%
    02:00 +13°C° 0 mm 2 mps 767 mmHg 87%
    03:00 +13°C° 0 mm 2 mps 767 mmHg 86%
    04:00 +13°C° 0 mm 2 mps 767 mmHg 84%
    05:00 +13°C° 0 mm 2 mps 767 mmHg 82%
    06:00 +13°C° 0 mm 2 mps 767 mmHg 80%
    07:00 +14°C° 0 mm 3 mps 767 mmHg 73%
    08:00 +17°C° 0 mm 3 mps 767 mmHg 66%
    09:00 +18°C° 0 mm 3 mps 767 mmHg 59%
    10:00 +19°C° 0 mm 3 mps 767 mmHg 56%
    11:00 +20°C° 0 mm 3 mps 766 mmHg 53%
    12:00 +21°C° 0 mm 3 mps 766 mmHg 51%
    13:00 +21°C° 0 mm 3 mps 766 mmHg 51%
    14:00 +22°C° 0 mm 3 mps 766 mmHg 52%
    15:00 +22°C° 0 mm 3 mps 765 mmHg 52%
    16:00 +21°C° 0 mm 3 mps 765 mmHg 57%
    17:00 +21°C° 0 mm 3 mps 765 mmHg 61%
    18:00 +20°C° 0 mm 3 mps 765 mmHg 65%
    19:00 +19°C° 0 mm 3 mps 765 mmHg 72%
    20:00 +17°C° 0 mm 3 mps 765 mmHg 78%
    21:00 +16°C° 0 mm 3 mps 765 mmHg 84%
    22:00 +14°C° 0 mm 3 mps 765 mmHg 85%
    23:00 +14°C° 0 mm 3 mps 765 mmHg 86%

    1 June, Monday

    Time Temperature Precipitation Wind Pressure Humidity
    00:00 +14°C° 0 mm 3 mps 765 mmHg 86%
    01:00 +13°C° 0 mm 3 mps 765 mmHg 86%
    02:00 +13°C° 0 mm 3 mps 765 mmHg 85%
    03:00 +12°C° 0 mm 3 mps 764 mmHg 84%
    04:00 +12°C° 0 mm 3 mps 764 mmHg 82%
    05:00 +13°C° 0 mm 3 mps 764 mmHg 80%
    06:00 +13°C° 0 mm 3 mps 764 mmHg 78%
    07:00 +14°C° 0 mm 3 mps 764 mmHg 71%
    08:00 +17°C° 0 mm 4 mps 764 mmHg 64%
    09:00 +18°C° 0 mm 4 mps 763 mmHg 57%
    10:00 +19°C° 0 mm 4 mps 763 mmHg 55%
    11:00 +20°C° 0 mm 4 mps 763 mmHg 53%
    12:00 +21°C° 0 mm 4 mps 762 mmHg 51%
    13:00 +21°C° 0 mm 4 mps 762 mmHg 52%
    14:00 +22°C° 0 mm 4 mps 762 mmHg 53%
    15:00 +22°C° 0 mm 4 mps 761 mmHg 53%
    16:00 +21°C° 0 mm 4 mps 761 mmHg 57%
    17:00 +21°C° 0 mm 4 mps 761 mmHg 61%
    18:00 +20°C° 0 mm 3 mps 760 mmHg 65%
    19:00 +19°C° 0 mm 3 mps 761 mmHg 70%
    20:00 +17°C° 0 mm 3 mps 761 mmHg 75%
    21:00 +16°C° 0 mm 3 mps 761 mmHg 80%
    22:00 +14°C° 0 mm 3 mps 761 mmHg 82%
    23:00 +13°C° 0 mm 3 mps 761 mmHg 84%
    Show more